Voltar ao catálogo

FENGYUN 1C DEB

LostPO
NORAD 35120·DEBRIS·🇨🇳 China

Lançado May 10, 1999 de Taiyuan Satellite Launch Center

Loading…

Próximas Passagens (próximas 24 horas)

TLE

ObsoletoSource: Space-Track

Época: Apr 29, 2024, 18:12 UTC

1 35120U 99025DKY 24120.75889122  .00006764  00000-0  32032-2 0  9992
2 35120  98.0114 102.1968 0139706 237.1498 121.6165 14.14887692554122

Acompanhe FENGYUN 1C DEB em tempo real com AllMySat

Download on the App Store